Weather History for Fayetteville, AR

Change the Weather History Date:

Wednesday, November 28, 2012

  Actual Average Record
Temperature  
Mean Temperature 39 °F 42 °F  
Max Temperature 57 °F 53 °F 77 °F (1949)
Min Temperature 21 °F 31 °F 7 °F (1976)
Degree Days  
Heating Degree Days 26 23  
Month to date heating degree days 478 482  
Since 1 July heating degree days 789 782  
Moisture  
Dew Point 26 °F    
Average Humidity 65    
Maximum Humidity 96    
Minimum Humidity 33    
Precipitation  
Precipitation 0.00 in 0.13 in 0.66 in (1948)
Month to date precipitation 0.97 3.96  
Year to date precipitation 27.91 45.00  
Sea Level Pressure  
Sea Level Pressure 30.37 in    
Wind  
Wind Speed 2 mph (South)    
Max Wind Speed 12 mph    
Max Gust Speed 17 mph    
Visibility 10 miles    
Events      
T = Trace of Precipitation, MM = Missing Value Source: NWS Daily Summary

Daily Weather History Graph

Daily Weather History Graph

Search for Another Location

Airport:

Trip Planner

Search our weather history database for the weather conditions in past years. The results will help you decide how hot, cold, wet, or windy it might be!

Date:

Astronomy

Nov. 28, 2012 Rise Set
Actual Time 7:06 AM CST 5:03 PM CST
Civil Twilight 6:38 AM CST 5:31 PM CST
Nautical Twilight 6:06 AM CST 6:02 PM CST
Astronomical Twilight 5:35 AM CST 6:33 PM CST
Moon 5:18 PM CST (11/28) 7:04 AM CST (11/28)
Length of Visible Light 10h 52m
Length of Day
9h 56m
Full, 100% of the Moon is Illuminated
Nov 28
Full
Dec 6
Last Quarter
Dec 13
New
Dec 19
First Quarter
Dec 28
Full

Hourly Weather History & Observations

Time (CST) Temp. Windchill Dew Point Humidity Pressure Visibility Wind Dir Wind Speed Gust Speed Precip Events Conditions
12:53 AM 25.0 °F - 23.0 °F 92% 30.40 in 10.0 mi Calm Calm - N/A   Clear
1:53 AM 26.1 °F - 23.0 °F 88% 30.40 in 10.0 mi Calm Calm - N/A   Clear
2:53 AM 25.0 °F - 23.0 °F 92% 30.40 in 10.0 mi Calm Calm - N/A   Clear
3:53 AM 21.9 °F - 19.9 °F 92% 30.40 in 10.0 mi Calm Calm - N/A   Clear
4:53 AM 23.0 °F - 21.0 °F 92% 30.41 in 10.0 mi Calm Calm - N/A   Clear
5:53 AM 21.9 °F - 19.9 °F 92% 30.43 in 10.0 mi Calm Calm - N/A   Clear
6:53 AM 21.0 °F - 19.0 °F 92% 30.45 in 10.0 mi Calm Calm - N/A   Clear
7:53 AM 24.1 °F - 21.0 °F 88% 30.46 in 10.0 mi Calm Calm - N/A   Clear
8:53 AM 28.9 °F - 27.0 °F 92% 30.47 in 10.0 mi Calm Calm - N/A   Clear
9:53 AM 39.0 °F - 32.0 °F 76% 30.47 in 10.0 mi Calm Calm - N/A   Clear
10:53 AM 50.0 °F - 30.0 °F 46% 30.45 in 10.0 mi Calm Calm - N/A   Clear
11:53 AM 54.0 °F - 28.9 °F 38% 30.41 in 10.0 mi Variable 5.8 mph - N/A   Clear
12:53 PM 57.0 °F - 28.9 °F 34% 30.37 in 10.0 mi South 8.1 mph - N/A   Clear
1:53 PM 57.0 °F - 28.0 °F 33% 30.35 in 10.0 mi South 9.2 mph - N/A   Clear
2:53 PM 57.0 °F - 28.9 °F 34% 30.32 in 10.0 mi South 10.4 mph - N/A   Clear
3:53 PM 55.0 °F - 28.0 °F 35% 30.33 in 10.0 mi South 8.1 mph - N/A   Clear
4:53 PM 50.0 °F - 28.0 °F 43% 30.32 in 10.0 mi SSW 6.9 mph - N/A   Clear
5:53 PM 44.1 °F - 28.9 °F 55% 30.33 in 10.0 mi Calm Calm - N/A   Clear
6:53 PM 37.9 °F - 28.9 °F 70% 30.33 in 10.0 mi Calm Calm - N/A   Clear
7:53 PM 35.1 °F - 28.9 °F 78% 30.33 in 10.0 mi Calm Calm - N/A   Clear
8:53 PM 33.1 °F - 28.0 °F 82% 30.31 in 10.0 mi Calm Calm - N/A   Clear
9:53 PM 32.0 °F - 27.0 °F 82% 30.29 in 10.0 mi Calm Calm - N/A   Clear
10:53 PM 30.9 °F - 27.0 °F 85% 30.27 in 10.0 mi Calm Calm - N/A   Clear
11:53 PM 39.9 °F 36.7 °F 30.0 °F 68% 30.25 in 10.0 mi South 4.6 mph - N/A   Clear